Weather History for Junction, TX

Change the Weather History Date:

Monday, March 4, 2013

  Actual Average Record
Temperature  
Mean Temperature 66 °F -  
Max Temperature 81 °F 65 °F 84 °F (2009)
Min Temperature 52 °F 39 °F 10 °F (2002)
Cooling Degree Days 2    
Growing Degree Days 16 (Base 50)    
Moisture  
Dew Point 24 °F    
Average Humidity 24    
Maximum Humidity 57    
Minimum Humidity 4    
Precipitation  
Precipitation 0.00 in - - ()
Sea Level Pressure  
Sea Level Pressure 29.72 in    
Wind  
Wind Speed 7 mph (WSW)    
Max Wind Speed 17 mph    
Max Gust Speed 28 mph    
Visibility 8 miles    
Events      
Averages and records for this station are not official NWS values.
T = Trace of Precipitation, MM = Missing Value Source: NWS Daily Summary

Daily Weather History Graph

Daily Weather History Graph

Search for Another Location

Airport:

Trip Planner

Search our weather history database for the weather conditions in past years. The results will help you decide how hot, cold, wet, or windy it might be!

Date:

Astronomy

Mar. 04, 2013 Rise Set
Actual Time 7:01 AM CST 6:40 PM CST
Civil Twilight 6:37 AM CST 7:04 PM CST
Nautical Twilight 6:09 AM CST 7:32 PM CST
Astronomical Twilight 5:41 AM CST 8:00 PM CST
Moon 12:56 AM CST (3/4) 11:40 AM CST (3/4)
Length of Visible Light 12h 26m
Length of Day
11h 38m
Waning Gibbous, 52% of the Moon is Illuminated
Mar 4
Waning Gibbous
Mar 4
Last Quarter
Mar 11
New
Mar 19
First Quarter
Mar 27
Full

Hourly Weather History & Observations

Time (CST) Temp. Dew Point Humidity Pressure Visibility Wind Dir Wind Speed Gust Speed Precip Events Conditions
12:51 AM 64.9 °F 24.1 °F 21% 29.76 in 9.0 mi South 10.4 mph 20.7 mph N/A   Clear
1:51 AM 62.1 °F 28.0 °F 28% 29.77 in 9.0 mi SSW 9.2 mph - N/A   Clear
2:51 AM 60.1 °F 36.0 °F 41% 29.75 in 8.0 mi Variable 3.5 mph - N/A   Clear
3:51 AM 57.9 °F 37.0 °F 46% 29.76 in 8.0 mi Variable 4.6 mph - N/A   Clear
4:51 AM 55.9 °F 37.0 °F 49% 29.76 in 8.0 mi SW 4.6 mph - N/A   Clear
5:51 AM 55.0 °F 37.9 °F 53% 29.76 in 8.0 mi Calm Calm - N/A   Clear
6:51 AM 53.1 °F 37.9 °F 57% 29.78 in 8.0 mi Calm Calm - N/A   Clear
7:51 AM 54.0 °F 39.0 °F 57% 29.79 in 7.0 mi Calm Calm - N/A   Clear
8:51 AM 59.0 °F 39.9 °F 49% 29.80 in 7.0 mi SSW 6.9 mph - N/A   Clear
9:51 AM 66.0 °F 39.9 °F 38% 29.78 in 8.0 mi SSW 9.2 mph - N/A   Clear
10:51 AM 78.1 °F 28.9 °F 17% 29.74 in 8.0 mi SW 11.5 mph - N/A   Clear
11:51 AM 82.9 °F 21.0 °F 10% 29.72 in 8.0 mi West 17.3 mph 25.3 mph N/A   Clear
12:51 PM 84.9 °F 15.1 °F 7% 29.70 in 8.0 mi West 13.8 mph 27.6 mph N/A   Clear
1:51 PM 82.9 °F 16.0 °F 8% 29.68 in 8.0 mi WNW 11.5 mph 18.4 mph N/A   Clear
2:51 PM 82.9 °F 12.0 °F 7% 29.65 in 8.0 mi West 8.1 mph - N/A   Clear
3:51 PM 84.9 °F 14.0 °F 7% 29.65 in 8.0 mi West 9.2 mph - N/A   Clear
4:51 PM 84.0 °F 7.0 °F 5% 29.64 in 8.0 mi West 6.9 mph - N/A   Clear
5:51 PM 81.0 °F 9.0 °F 6% 29.65 in 8.0 mi WSW 5.8 mph - N/A   Clear
6:51 PM 79.0 °F 10.0 °F 7% 29.65 in 8.0 mi Calm Calm - N/A   Clear
7:51 PM 68.0 °F 17.1 °F 14% 29.68 in 9.0 mi Calm Calm - N/A   Clear
8:51 PM 64.0 °F 17.1 °F 16% 29.69 in 9.0 mi WNW 3.5 mph - N/A   Clear
9:51 PM 61.0 °F 18.0 °F 19% 29.70 in 9.0 mi Calm Calm - N/A   Clear
10:51 PM 57.0 °F 19.0 °F 23% 29.70 in 9.0 mi Calm Calm - N/A   Clear
11:51 PM 54.0 °F 19.0 °F 25% 29.70 in 9.0 mi Calm Calm - N/A   Clear